Regional Weather Roundup
Issued by NWS

Home | Current Version | Previous Version | Graphics & Text | Print | Product List | Glossary On
Versions: 1 2 3 4 5 6 7 8 9 10 11 12 13 14 15 16 17 18 19 20 21 22 23 24 25 26 27 28 29 30 31 32 33 34 35 36 37 38 39 40 41 42 43 44 45 46 47 48 49 50
000
ASUS44 KMEG 290810
RWRTN
TENNESSEE HOURLY STATE WEATHER ROUNDUP
NATIONAL WEATHER SERVICE MEMPHIS TN
300 AM CDT FRI MAY 29 2015

TNZ002-004-019-021-049-052-054-088>092-290900-
WEST TENNESSEE

CITY           SKY/WX    TMP DP  RH WIND       PRES   REMARKS
MEMPHIS INTL   PTCLDY    71  66  84 SE8       30.01F
NWS MEMPHIS      N/A     68 N/A N/A MISG        N/A
JACKSON        CLEAR     67  65  93 S5        30.04F
DYERSBURG      CLEAR     68  54  60 CALM      30.04F
PARIS          CLEAR     64  64 100 SE6       30.06F
LEXINGTON      MOCLDY    64  64 100 CALM      30.06F VSB 1
$$

TNZ008-025-027-028-033-062-065-066-290900-
NORTH MIDDLE TENNESSEE

CITY           SKY/WX    TMP DP  RH WIND       PRES   REMARKS
NASHVILLE      CLEAR     66  64  93 SE3       30.10F
CLARKSVILLE    CLEAR     69  65  86 S7        30.08F
SMYRNA         PTCLDY    67  66  96 E5        30.11S
COOKEVILLE     CLEAR     63  63 100 E5G25     30.13S
CROSSVILLE     CLEAR     65  62  90 CALM      30.17S
$$

TNZ061-075-076-078-094-096-097-290900-
SOUTH MIDDLE TENNESSEE

CITY           SKY/WX    TMP DP  RH WIND       PRES   REMARKS
FAYETTEVILLE   MOCLDY   N/A N/A N/A MISG      30.12R
TULLAHOMA      CLEAR     64  64 100 CALM      30.13S
WINCHESTER     CLEAR     66  64  94 SW3       30.13R
MCMINNVILLE    CLOUDY    64  64 100 CALM      30.13R VSB 1/4
COLUMBIA       CLEAR     66  64  94 SE3       30.08S
SHELBYVILLE    CLEAR     64  64 100 CALM      30.12R
$$

TNZ017-018-042-046-047-290900-
NORTHEAST TENNESSEE

CITY           SKY/WX    TMP DP  RH WIND       PRES   REMARKS
TRI CITIES     FOG       63  63 100 CALM      30.18F VSB 1/4
ELIZABETHTON   SUNNY     61  59  94 NE3       30.19S
$$

TNZ012-013-036-069-073-074-290900-
CENTRAL EAST TENNESSEE

CITY           SKY/WX    TMP DP  RH WIND       PRES   REMARKS
KNOXVILLE      MOCLDY    66  65  96 NE3       30.13F
OAK RIDGE      MOCLDY    67  64  90 CALM      30.14F
GATLINBURG       N/A     64  63  94 CALM      30.14F
MORRISTOWN     SUNNY     64  64 100 E3        30.17S
$$

TNZ083-085-099-290900-
SOUTHEAST TENNESSEE

CITY           SKY/WX    TMP DP  RH WIND       PRES   REMARKS
CHATTANOOGA    PTCLDY    66  65  96 NW3       30.13S FOG
$$

SKY/WX REPORTED AS FAIR MEANS FEW OR NO CLOUDS BELOW
12 THOUSAND FEET.



USA.gov is the U.S. government's official web portal to all federal, state and local government web resources and services.